Total_Precipitation_Accumulation
0.52 0.53 0.56 0.58 0.50 0.45 0.41 0.50 0.57 0.63 0.69 0.81 0.86 0.85 0.77 0.71 0.82 0.92 0.72 0.65 0.76 0.85 0.60 0.39 0.43 0.72 0.77 0.43 0.12 0.24 0.22 0.31 0.37 0.90 0.80 1.08 0.74 0.51 0.38 0.40 1.37 1.64 1.45 0.97 1.06 0.89 0.71
0.50 0.54 0.58 0.52 0.47 0.44 0.48 0.55 0.57 0.63 0.79 0.82 0.90 0.85 0.75 0.72 0.67 0.79 0.63 0.46 0.58 1.10 0.66 0.39 0.56 0.96 0.68 0.26 0.03 0.09 0.20 0.16 0.34 0.79 0.82 1.15 0.75 0.48 0.34 0.40 0.91 1.31 1.72 1.15 0.99 0.86 0.57
0.46 0.54 0.57 0.50 0.46 0.42 0.51 0.63 0.60 0.63 0.72 0.74 0.83 0.74 0.67 0.76 0.71 0.75 0.64 0.61 0.86 1.13 0.60 0.59 0.88 1.05 0.56 0.09 0.03 0.09 0.15 0.23 0.37 0.71 0.97 0.99 0.66 0.70 0.38 0.34 0.30 0.86 1.88 1.45 0.93 1.03 0.60
0.45 0.52 0.53 0.50 0.43 0.43 0.53 0.62 0.60 0.63 0.69 0.71 0.84 0.70 0.70 0.77 0.64 0.61 0.59 0.56 0.82 1.00 0.75 0.75 1.20 1.10 0.37 0.02 0.03 0.03 0.12 0.23 0.29 0.68 0.84 1.14 1.00 0.78 0.50 0.33 0.37 0.64 1.60 1.88 0.99 1.02 0.85
0.48 0.48 0.49 0.46 0.40 0.47 0.62 0.63 0.57 0.58 0.70 0.84 0.89 0.79 0.78 0.69 0.61 0.60 0.52 0.59 0.76 0.74 0.76 1.23 1.13 0.69 0.17 0.04 0.06 0.03 0.14 0.23 0.26 0.72 1.01 1.88 1.92 1.09 0.69 0.72 0.77 0.65 0.79 1.10 1.14 0.86 0.96
0.47 0.48 0.47 0.43 0.41 0.53 0.65 0.68 0.62 0.69 0.81 0.94 0.88 0.81 0.86 0.78 0.76 0.70 0.69 0.84 1.10 1.06 1.02 1.56 0.96 0.84 0.15 0.05 0.14 0.08 0.22 0.30 0.50 1.15 1.80 2.67 2.12 1.47 0.84 1.02 0.83 0.40 0.47 0.43 0.63 0.76 0.80
0.48 0.49 0.45 0.38 0.41 0.50 0.62 0.66 0.63 0.76 0.76 0.84 0.80 0.84 0.88 0.80 0.95 1.11 1.26 1.67 1.48 1.61 1.19 0.81 0.52 0.40 0.17 0.26 0.39 0.27 0.35 0.56 0.97 1.58 1.71 2.40 1.69 1.17 0.47 0.30 0.26 0.38 0.48 0.43 0.25 0.36 0.76
0.51 0.58 0.50 0.48 0.51 0.62 0.67 0.68 0.71 0.82 0.85 0.89 0.82 0.85 0.85 0.82 1.07 1.32 1.32 1.28 0.80 0.83 0.90 0.41 0.36 0.36 0.23 0.48 0.74 0.58 0.41 1.00 1.03 1.28 1.62 2.31 1.18 0.34 0.37 0.35 0.39 0.55 0.68 0.53 0.33 0.24 0.50
0.60 0.60 0.45 0.49 0.55 0.67 0.70 0.69 0.80 0.89 0.92 0.95 0.91 0.95 1.13 1.23 1.35 1.82 1.18 0.80 0.77 1.00 1.28 0.86 0.56 0.49 0.42 0.85 0.79 0.76 0.56 1.21 0.84 1.08 1.67 1.78 0.63 0.36 0.55 0.63 0.54 0.51 0.61 0.46 0.48 0.36 0.46
0.70 0.67 0.60 0.65 0.64 0.68 0.73 0.81 1.05 1.15 1.10 1.10 1.15 1.43 1.55 1.79 2.13 1.27 1.34 0.98 1.04 1.66 2.27 1.23 0.80 0.65 0.73 1.01 1.05 0.58 1.07 1.55 0.91 1.23 1.47 1.36 0.63 0.59 0.78 0.63 0.51 0.59 0.30 0.30 0.38 0.81 0.91
0.80 0.84 0.87 0.79 0.83 0.84 0.83 0.94 1.07 1.09 1.13 1.22 1.55 1.72 1.78 2.36 2.57 1.48 1.41 1.07 1.31 2.44 2.19 1.11 0.86 0.79 0.79 0.73 0.68 0.81 1.06 1.44 0.77 1.04 1.66 1.47 0.76 0.64 1.02 0.74 0.36 0.45 0.21 0.19 0.47 0.82 1.10
0.93 0.83 0.84 0.81 0.87 0.94 0.94 0.97 0.97 0.91 1.08 1.41 1.40 1.32 1.80 2.20 2.29 1.56 1.47 1.66 2.18 2.77 2.05 1.39 1.24 0.88 0.78 0.59 0.64 1.04 1.15 1.15 0.86 1.14 1.15 1.00 0.70 0.78 0.80 0.80 0.52 0.43 0.60 0.56 0.62 1.29 2.27
0.97 0.83 0.87 0.87 0.90 0.93 0.95 1.01 1.08 1.18 1.23 1.24 1.26 1.28 1.64 1.70 1.90 1.90 2.40 2.27 2.67 1.77 1.16 1.20 1.07 0.82 0.75 0.69 0.81 0.93 1.33 1.33 1.79 1.58 1.69 1.79 1.18 0.75 0.78 1.41 1.18 1.37 2.00 2.57 2.08 2.41 1.54
1.09 1.14 1.06 1.00 1.03 1.02 1.16 1.12 1.32 1.46 1.35 1.34 1.39 1.31 1.60 1.41 2.03 2.02 3.05 2.27 1.79 0.70 1.03 0.92 0.39 0.47 0.54 0.33 0.62 0.79 0.99 0.87 0.82 0.70 1.13 1.32 1.35 1.01 0.77 1.51 2.04 1.35 2.04 2.54 1.67 0.74 0.38
1.03 1.15 1.17 1.14 1.28 1.32 1.39 1.26 1.25 1.35 1.38 1.75 1.70 1.94 2.73 1.54 2.11 2.71 2.91 2.38 1.16 1.00 1.15 0.69 0.51 0.42 0.39 0.31 0.64 0.74 0.88 0.67 0.57 0.48 1.22 0.96 0.75 0.53 0.54 0.57 1.40 1.83 1.87 1.10 1.71 0.81 0.72
1.16 1.09 1.24 1.39 1.36 1.42 1.43 1.36 1.41 1.38 1.62 1.99 1.89 2.14 2.67 1.82 1.86 3.49 3.43 1.96 1.05 0.89 0.57 0.38 0.54 0.33 0.32 0.32 0.61 0.61 0.73 0.71 0.49 0.35 0.62 0.90 1.27 0.54 0.66 0.97 1.25 1.63 1.36 1.63 2.74 1.95 0.80
1.44 1.37 1.37 1.51 1.44 1.45 1.53 1.49 1.51 1.66 1.95 1.87 1.51 2.64 2.15 2.41 2.67 3.97 3.26 1.75 0.98 0.53 0.57 0.46 0.23 0.35 0.34 0.24 0.46 0.42 0.54 0.50 0.38 0.17 0.33 1.12 1.58 0.90 1.04 1.37 1.50 1.69 2.88 1.86 1.76 0.99 1.30
1.54 1.70 1.73 1.70 1.65 1.50 1.67 1.58 1.35 1.72 2.15 2.10 1.74 2.19 2.00 2.69 3.70 2.82 2.26 1.77 0.98 0.53 0.46 0.45 0.35 0.44 0.37 0.22 0.38 0.28 0.26 0.39 0.30 0.31 0.53 1.00 1.89 1.27 0.61 0.75 0.79 1.14 1.66 2.04 1.77 1.18 1.10
1.57 1.74 1.88 1.92 1.71 1.57 1.70 1.85 1.58 1.75 3.04 3.31 2.37 2.44 2.97 2.04 1.91 1.57 1.79 1.25 0.73 0.47 0.43 0.44 0.24 0.25 0.22 0.18 0.37 0.14 0.15 0.12 0.14 0.25 0.76 1.41 2.09 1.56 1.13 1.48 1.01 1.50 1.30 1.78 2.03 2.12 1.74
1.95 1.70 1.76 1.74 1.82 1.81 1.88 1.71 1.66 1.88 2.64 3.28 2.70 2.54 3.78 3.00 1.38 1.67 1.61 1.13 0.73 0.40 0.33 0.43 0.26 0.17 0.15 0.10 0.11 0.16 0.11 0.05 0.03 0.13 0.57 1.29 1.44 1.36 1.35 1.47 1.65 1.35 0.97 1.45 2.72 3.43 1.52
1.91 1.82 1.78 1.83 1.93 1.96 2.39 2.09 1.85 2.07 2.34 2.85 2.32 1.31 1.17 1.37 0.96 0.89 1.27 1.18 0.77 0.62 0.47 0.43 0.31 0.20 0.35 0.32 0.08 0.06 0.06 0.05 0.06 0.08 0.35 1.37 1.60 1.09 0.54 0.36 1.11 1.29 1.31 1.44 2.43 1.95 2.27
1.80 1.93 1.98 2.30 2.17 2.51 2.80 2.51 2.20 2.50 3.35 2.78 2.11 1.50 1.04 0.55 0.30 0.53 1.12 1.25 0.85 0.78 0.71 0.35 0.26 0.17 0.15 0.27 0.24 0.17 0.12 0.14 0.14 0.11 0.30 0.91 1.57 1.38 0.91 0.52 0.74 1.18 1.09 1.36 1.52 1.55 1.78
1.60 1.68 1.79 1.91 2.07 2.07 1.92 2.14 2.46 3.01 4.29 3.12 1.92 1.41 2.01 0.84 0.35 0.59 0.80 1.01 0.83 0.72 0.49 0.19 0.21 0.29 0.18 0.09 0.06 0.05 0.09 0.13 0.31 0.36 0.44 0.96 1.24 1.58 1.00 0.59 1.00 1.84 1.78 1.42 1.25 1.43 1.74
1.71 1.68 1.49 1.52 1.63 1.89 1.92 1.90 2.01 2.29 3.26 2.97 2.09 2.44 2.52 1.13 0.41 0.36 0.55 0.88 0.78 0.59 0.69 0.16 0.17 0.28 0.17 0.06 0.08 0.08 0.14 0.09 0.09 0.19 0.37 0.49 0.86 1.56 1.17 0.95 1.69 1.44 1.05 1.04 1.26 1.36 1.37
1.45 1.43 1.40 1.30 1.34 1.50 1.67 1.90 1.56 1.67 2.43 2.40 1.99 2.47 2.37 1.34 0.32 0.24 0.46 0.70 0.82 0.75 0.74 0.40 0.13 0.12 0.12 0.24 0.46 0.44 0.38 0.42 0.23 0.12 0.07 0.27 0.58 1.18 1.03 0.73 0.53 0.26 0.16 0.45 0.94 1.32 0.91
1.37 1.27 1.38 1.63 1.41 1.26 1.36 1.56 1.33 1.36 1.70 1.95 1.54 2.18 2.78 2.36 0.46 0.20 0.39 0.52 0.92 0.94 0.92 0.63 0.32 0.19 0.36 0.76 0.88 0.87 0.52 0.36 0.29 0.31 0.22 0.10 0.37 1.23 0.94 0.96 0.36 0.20 0.03 0.09 0.39 1.15 0.63
1.80 1.40 1.26 1.39 1.57 1.30 1.39 1.57 1.47 1.53 1.78 2.09 1.36 1.81 2.71 2.52 0.48 0.21 0.45 0.46 0.69 1.07 1.37 0.98 0.84 0.46 0.55 1.08 1.05 0.65 0.24 0.15 0.21 0.25 0.28 0.49 0.66 0.94 0.68 1.20 0.31 0.09 0.07 0.14 0.47 0.75 0.48
2.06 2.02 1.89 1.35 1.20 1.46 1.65 1.79 1.96 1.84 2.10 2.47 1.41 1.45 2.38 2.47 0.68 0.14 0.19 0.33 0.58 1.01 1.39 1.26 1.63 1.07 1.12 1.50 1.28 0.88 0.64 0.51 0.26 0.12 0.21 0.54 0.61 0.56 0.53 0.99 0.39 0.04 0.04 0.25 0.38 0.16 0.30
2.33 1.87 1.80 1.71 1.35 1.22 1.48 1.77 2.09 1.98 2.09 2.45 1.59 1.12 1.71 2.39 1.21 0.24 0.15 0.19 0.32 0.67 1.30 1.34 1.77 1.10 1.27 1.36 1.34 1.19 0.94 0.76 0.46 0.33 0.11 0.69 0.55 0.45 0.29 0.23 0.12 0.07 0.09 0.10 0.09 0.22 0.25